Meteo Giornale » Osservazioni meteo Germania » Spangdahlem

ore: 15:55 - Osservazioni Meteo Spangdahlem
Lat. 49° 59' N Lon. 6° 42' E Alt. 365 metri s.l.m.

nuvoloso

22 °C

Nuvoloso

Temp. 24 Ore

12 °C

22 °C

Ovest

18.5 Km/h

Dew point 8 °C

Umidità 40 %

Visibilità  10 Km

Il sole sorge alle ore 06:48

Il sole tramonta alle ore 20:18

Data e Ora Cielo e Fenomeni T °C DP °C Um. % Pres. hPa Vis. km Vento km/h
Oggi h: 15:55 nuvoloso Nuvoloso 22 8 40 1020 10 O 18.5
Oggi h: 15:10 nuvoloso Nuvoloso 21 9 46 1020 10 O 16.7
Oggi h: 14:55 molto_nuvoloso Molto Nuvoloso 20 9 49 1021 10 O 13
Oggi h: 13:55 molto_nuvoloso Molto Nuvoloso 20 10 52 1021 10 O/NO 14.8
Oggi h: 12:55 nuvoloso Nuvoloso 21 11 52 1021 10 O/SO 20.3
Oggi h: 12:40 nuvoloso Nuvoloso 21 11 52 1021 10 O/SO 27.8
Oggi h: 11:55 molto_nuvoloso Molto Nuvoloso 19 12 63 1021 10 O/SO 20.3
Oggi h: 10:55 molto_nuvoloso Molto Nuvoloso 18 13 72 1021 10 O/SO 20.3
Oggi h: 09:55 molto_nuvoloso Molto Nuvoloso 16 13 82 1021 10 O/SO 11.1
Oggi h: 08:56 nuvoloso Nuvoloso 14 12 87 1020 10 O 9.3
Oggi h: 08:55 molto_nuvoloso Molto Nuvoloso 14 12 87 1020 10 O 9.3
Oggi h: 07:55 molto_nuvoloso Molto Nuvoloso 13 12 93 1020 10 O 11.1
Oggi h: 06:55 molto_nuvoloso Molto Nuvoloso 12 11 93 1020 10 O 7.4
Oggi h: 06:47 molto_nuvoloso Molto Nuvoloso 12 11 93 1020 10 O 7.4
Oggi h: 06:32 poco_nuvoloso Poco Nuvoloso 12 11 93 1020 10 O 7.4
Oggi h: 05:55 poco_nuvoloso Poco Nuvoloso 12 11 93 1020 10 O 9.3
Oggi h: 05:35 poco_nuvoloso Poco Nuvoloso 12 11 93 1019 10 O/NO 11.1
Oggi h: 04:55 sereno Sereno 13 11 87 1019 10 O 7.4
Oggi h: 03:55 sereno Sereno 12 11 93 1019 10 O 11.1
Oggi h: 02:55 sereno Sereno 13 12 93 1019 10 N 5.5
Oggi h: 01:55 sereno Sereno 14 12 87 1019 10 N 5.5
Oggi h: 00:55 sereno Sereno 14 13 93 1019 10 O/SO 9.3
Ieri h: 23:55 nuvoloso Nuvoloso 15 13 87 1019 10 O/SO 7.4
Ieri h: 22:55 nuvoloso Nuvoloso 15 14 93 1018 10 O/NO 7.4
Ieri h: 21:55 molto_nuvoloso Molto Nuvoloso 15 14 93 1018 10 O/SO 9.3
Ieri h: 21:36 molto_nuvoloso Molto Nuvoloso 16 14 87 1017 10 O 11.1
Ieri h: 21:25 coperto_pioggia Pioggia 16 14 87 1017 5 O 13
Ieri h: 21:20 coperto_pioggia Pioggia 16 14 87 1017 5 O/NO 16.7
Ieri h: 21:17 coperto_pioggia Pioggia 16 14 87 1017 4 O/NO 11.1
Ieri h: 21:14 coperto_pioggia Pioggia 16 14 87 1017 6 O 13
Ieri h: 21:10 coperto_pioggia Pioggia 16 14 87 1017 10 O/NO 11.1
Ieri h: 20:55 coperto_pioggia Pioggia 18 13 72 1017 10 NO 20.3
Ieri h: 20:54 coperto_pioggia Pioggia 18 13 72 1017 10 NO 20.3
Ieri h: 20:10 coperto Coperto 18 12 67 1016 10 O/SO 22.2
Ieri h: 19:55 molto_nuvoloso Molto Nuvoloso 18 12 67 1016 10 N 5.5
Ieri h: 18:55 molto_nuvoloso Molto Nuvoloso 20 11 56 1015 10 O 22.2
Ieri h: 18:43 molto_nuvoloso Molto Nuvoloso 20 13 64 1015 10 O 18.5
Ieri h: 18:34 coperto_pioggia Pioviggine 20 13 64 1015 10 O/SO 22.2
Ieri h: 17:55 nuvoloso Nuvoloso 20 13 64 1014 10 O/SO 22.2
Ieri h: 16:55 nuvoloso_temporali Temporale nelle vicinanze 21 13 60 1014 10 O/SO 33.3